Hourly Weather Kyustendil

Today, 26 October, Monday

Time Temperature Precipitation Wind Pressure Humidity
00:00 +9°C° 0 mm 0 mps 694 mmHg 86%
01:00 +9°C° 0 mm 0 mps 694 mmHg 86%
02:00 +9°C° 0 mm 0 mps 694 mmHg 86%
03:00 +8°C° 0 mm 0 mps 694 mmHg 85%
04:00 +8°C° 0 mm 0 mps 694 mmHg 85%
05:00 +8°C° 0 mm 0 mps 694 mmHg 84%
06:00 +8°C° 0 mm 0 mps 694 mmHg 82%
07:00 +9°C° 0 mm 0 mps 695 mmHg 80%
08:00 +9°C° 0 mm 0 mps 695 mmHg 78%
09:00 +12°C° 0 mm 0 mps 695 mmHg 70%
10:00 +15°C° 0 mm 1 mps 696 mmHg 62%
11:00 +18°C° 0 mm 1 mps 696 mmHg 55%
12:00 +18°C° 0 mm 1 mps 696 mmHg 51%
13:00 +19°C° 0 mm 1 mps 696 mmHg 47%
14:00 +20°C° 0 mm 1 mps 695 mmHg 43%
15:00 +19°C° 0 mm 1 mps 695 mmHg 48%
16:00 +18°C° 0 mm 1 mps 695 mmHg 52%
17:00 +16°C° 0 mm 1 mps 695 mmHg 56%
18:00 +14°C° 0 mm 1 mps 695 mmHg 59%
19:00 +13°C° 0 mm 1 mps 695 mmHg 62%
20:00 +12°C° 0 mm 1 mps 695 mmHg 65%
21:00 +12°C° 0 mm 1 mps 695 mmHg 66%
22:00 +11°C° 0 mm 1 mps 695 mmHg 66%
23:00 +11°C° 0 mm 1 mps 695 mmHg 66%

Tomorrow, 27 October, Tuesday

Time Temperature Precipitation Wind Pressure Humidity
00:00 +11°C° 0 mm 1 mps 695 mmHg 67%
01:00 +10°C° 0 mm 1 mps 695 mmHg 67%
02:00 +10°C° 0 mm 1 mps 695 mmHg 67%
03:00 +10°C° 0 mm 1 mps 694 mmHg 69%
04:00 +8°C° 0 mm 0 mps 694 mmHg 71%
05:00 +8°C° 0 mm 0 mps 694 mmHg 72%
06:00 +9°C° 0 mm 0 mps 694 mmHg 71%
07:00 +9°C° 0 mm 0 mps 695 mmHg 70%
08:00 +10°C° 0 mm 0 mps 695 mmHg 68%
09:00 +13°C° 0 mm 1 mps 695 mmHg 61%
10:00 +15°C° 0 mm 1 mps 695 mmHg 53%
11:00 +18°C° 0 mm 1 mps 696 mmHg 46%
12:00 +19°C° 0 mm 1 mps 695 mmHg 43%
13:00 +20°C° 0 mm 1 mps 695 mmHg 40%
14:00 +20°C° 0 mm 2 mps 695 mmHg 37%
15:00 +20°C° 0 mm 1 mps 694 mmHg 42%
16:00 +18°C° 0 mm 1 mps 694 mmHg 47%
17:00 +16°C° 0 mm 1 mps 694 mmHg 52%
18:00 +15°C° 0 mm 1 mps 694 mmHg 55%
19:00 +14°C° 0 mm 1 mps 694 mmHg 59%
20:00 +12°C° 0 mm 1 mps 694 mmHg 62%
21:00 +12°C° 0 mm 1 mps 694 mmHg 64%
22:00 +11°C° 0 mm 1 mps 694 mmHg 66%
23:00 +10°C° 0 mm 0 mps 694 mmHg 69%

Day after tomorrow, 28 October, Wednesday

Time Temperature Precipitation Wind Pressure Humidity
00:00 +9°C° 0 mm 0 mps 694 mmHg 70%
01:00 +9°C° 0 mm 0 mps 693 mmHg 71%
02:00 +9°C° 0 mm 0 mps 693 mmHg 73%
03:00 +8°C° 0 mm 0 mps 693 mmHg 74%
04:00 +8°C° 0 mm 0 mps 693 mmHg 75%
05:00 +8°C° 0 mm 0 mps 693 mmHg 76%
06:00 +8°C° 0 mm 0 mps 694 mmHg 74%
07:00 +9°C° 0 mm 0 mps 694 mmHg 73%
08:00 +9°C° 0 mm 0 mps 694 mmHg 71%
09:00 +11°C° 0 mm 0 mps 695 mmHg 64%
10:00 +14°C° 0 mm 1 mps 695 mmHg 57%
11:00 +18°C° 0 mm 1 mps 696 mmHg 50%
12:00 +18°C° 0 mm 1 mps 695 mmHg 47%
13:00 +19°C° 0 mm 1 mps 695 mmHg 45%
14:00 +20°C° 0 mm 1 mps 695 mmHg 42%
15:00 +18°C° 0 mm 1 mps 695 mmHg 47%
16:00 +16°C° 0 mm 1 mps 695 mmHg 51%
17:00 +14°C° 0 mm 0 mps 695 mmHg 56%
18:00 +13°C° 0 mm 0 mps 695 mmHg 60%
19:00 +13°C° 0 mm 1 mps 695 mmHg 63%
20:00 +12°C° 0 mm 1 mps 695 mmHg 67%
21:00 +12°C° 0 mm 1 mps 695 mmHg 69%
22:00 +11°C° 0 mm 1 mps 695 mmHg 71%
23:00 +11°C° 0 mm 1 mps 695 mmHg 73%

29 October, Thursday

Time Temperature Precipitation Wind Pressure Humidity
00:00 +11°C° 0 mm 1 mps 695 mmHg 75%
01:00 +10°C° 0 mm 1 mps 695 mmHg 78%
02:00 +10°C° 0 mm 1 mps 695 mmHg 80%
03:00 +10°C° 0 mm 1 mps 695 mmHg 82%
04:00 +10°C° 0 mm 1 mps 695 mmHg 84%
05:00 +9°C° 0 mm 1 mps 695 mmHg 86%
06:00 +10°C° 0 mm 1 mps 696 mmHg 85%
07:00 +10°C° 0 mm 1 mps 696 mmHg 84%
08:00 +10°C° 0 mm 1 mps 696 mmHg 83%
09:00 +12°C° 0 mm 1 mps 697 mmHg 75%
10:00 +14°C° 0 mm 1 mps 697 mmHg 67%
11:00 +16°C° 0 mm 1 mps 698 mmHg 60%
12:00 +18°C° 0 mm 1 mps 698 mmHg 56%
13:00 +18°C° 0 mm 2 mps 698 mmHg 53%
14:00 +18°C° 0 mm 2 mps 698 mmHg 49%
15:00 +17°C° 0 mm 2 mps 698 mmHg 54%
16:00 +16°C° 0 mm 1 mps 698 mmHg 59%
17:00 +15°C° 0 mm 1 mps 698 mmHg 63%
18:00 +14°C° 0 mm 1 mps 698 mmHg 69%
19:00 +13°C° 0 mm 1 mps 698 mmHg 74%
20:00 +12°C° 0 mm 1 mps 698 mmHg 80%
21:00 +11°C° 0 mm 1 mps 699 mmHg 81%
22:00 +11°C° 0 mm 1 mps 699 mmHg 83%
23:00 +10°C° 0 mm 1 mps 699 mmHg 84%

30 October, Friday

Time Temperature Precipitation Wind Pressure Humidity
00:00 +10°C° 0 mm 1 mps 700 mmHg 84%
01:00 +10°C° 0 mm 1 mps 700 mmHg 85%
02:00 +10°C° 0 mm 1 mps 700 mmHg 85%
03:00 +9°C° 0 mm 1 mps 700 mmHg 86%
04:00 +9°C° 0 mm 1 mps 700 mmHg 87%
05:00 +9°C° 0 mm 1 mps 701 mmHg 88%
06:00 +9°C° 0 mm 1 mps 701 mmHg 87%
07:00 +10°C° 0 mm 1 mps 701 mmHg 85%
08:00 +10°C° 0 mm 1 mps 701 mmHg 84%
09:00 +12°C° 0 mm 1 mps 702 mmHg 76%
10:00 +14°C° 0 mm 1 mps 702 mmHg 67%
11:00 +16°C° 0 mm 1 mps 703 mmHg 58%
12:00 +16°C° 0 mm 2 mps 703 mmHg 54%
13:00 +17°C° 0 mm 2 mps 703 mmHg 50%
14:00 +18°C° 0 mm 2 mps 703 mmHg 46%
15:00 +17°C° 0 mm 2 mps 702 mmHg 51%
16:00 +16°C° 0 mm 1 mps 702 mmHg 56%
17:00 +15°C° 0 mm 1 mps 702 mmHg 61%
18:00 +14°C° 0 mm 1 mps 702 mmHg 65%
19:00 +12°C° 0 mm 1 mps 702 mmHg 68%
20:00 +11°C° 0 mm 1 mps 702 mmHg 72%
21:00 +11°C° 0 mm 1 mps 702 mmHg 73%
22:00 +11°C° 0 mm 1 mps 702 mmHg 74%
23:00 +11°C° 0 mm 1 mps 702 mmHg 75%

31 October, Saturday

Time Temperature Precipitation Wind Pressure Humidity
00:00 +9°C° 0 mm 0 mps 702 mmHg 77%
01:00 +9°C° 0 mm 0 mps 702 mmHg 78%
02:00 +8°C° 0 mm 0 mps 702 mmHg 80%
03:00 +8°C° 0 mm 0 mps 701 mmHg 80%
04:00 +8°C° 0 mm 0 mps 701 mmHg 80%
05:00 +7°C° 0 mm 0 mps 701 mmHg 81%
06:00 +8°C° 0 mm 0 mps 701 mmHg 79%
07:00 +8°C° 0 mm 0 mps 701 mmHg 77%
08:00 +9°C° 0 mm 0 mps 701 mmHg 75%
Show more

We Need Your Consent

Meteoprog and our Service Providers may store and access personal data such as cookies, device identifiers or other similar technologies on your device and process such data to personalise content and ads, as well as provide social media features and to analyse the traffic.

  • Store and/or access information on your device

    Cookies, device identifiers or other information can be stored or accessed on your device for the purposes indicated above.

  • Personalised ads and content, ad and content measurement, audience insights, and products development

    Ads and content can be personalised based on a profile. More data can be added to better personalise ads and content. Ad and content performance can be measured. Insights about the audience who saw the ads and content can be derived. Such data can be used to develop or improve user’s experience, systems and software.

By clicking ‘I Agree’ you will allow the use of indicated cookies, device identifiers, web beacons or other similar technologies. Your settings can be changed in the browser on your device.

For certain purposes, legitimate interests may be relied on, rather than consent. You can read more about this in our Privacy and Cookie Policy.